+ View the NASA Portal
+ Center for Near-Earth Object Studies
IMPORTANT:
The SSD Announcement email list is now available. Major changes are coming in the near future, including possible hostname and/or URL changes. To be notified of such changes, subscribe to this email list.
Please visit
this page
for more details.
Don't show this message again
JPL Small-Body Database Browser
Search:
[
help
]
226640 (2004 FT49)
Classification:
Main-belt Asteroid
SPK-ID:
2226640
[
Ephemeris
|
Orbit Diagram
|
Orbital Elements
|
Mission Design
|
Physical Parameters
|
Discovery Circumstances
|
Close-Approach Data
]
[ show orbit diagram ]
Orbital Elements at Epoch 2458600.5 (2019-Apr-27.0) TDB
Reference:
JPL 13
(heliocentric ecliptic J2000)
Element
Value
Uncertainty (1-sigma)
Units
e
.1016114161443587
4.3004e-08
a
2.239890604581094
1.2716e-08
au
q
2.012292148241166
1.0261e-07
au
i
5.314996126756395
7.5775e-06
deg
node
202.796105200966
4.2616e-05
deg
peri
274.600524177712
5.8596e-05
deg
M
237.7703474444521
3.8414e-05
deg
t
p
2459016.231292463658
(2020-Jun-15.73129246)
0.00012969
TDB
period
1224.44318672101
3.35
1.0427e-05
2.855e-08
d
yr
n
.2940111912942729
2.5038e-09
deg/d
Q
2.467489060921023
1.4008e-08
au
Orbit Determination Parameters
# obs. used (total)
268
data-arc span
9347 days (25.59 yr)
first obs. used
1994-04-06
last obs. used
2019-11-08
planetary ephem.
DE431
SB-pert. ephem.
SB431-N16
condition code
0
norm. resid. RMS
.49365
source
ORB
producer
Otto Matic
solution date
2019-Dec-04 17:28:06
Additional Information
Earth MOID
= 1.03693 au
Jupiter MOID
= 2.60958 au
T_jup
= 3.623
[ show covariance matrix ]
[
Ephemeris
|
Orbit Diagram
|
Orbital Elements
|
Mission Design
|
Physical Parameters
|
Discovery Circumstances
|
Close-Approach Data
]
Physical Parameter Table
Parameter
Symbol
Value
Units
Sigma
Reference
Notes
absolute magnitude
H
17.3
n/a
MPO241426
226640 (2004 FT49)
Discovered 2004-Mar-18 by LINEAR at Socorro
Reference:
20091202/Numbers.arc
Last Updated:
2009-12-04
[ show close-approach data ]
Alternate Designations
2004 FT49
= 2002 UT63
[
Ephemeris
|
Orbit Diagram
|
Orbital Elements
|
Mission Design
|
Physical Parameters
|
Discovery Circumstances
|
Close-Approach Data
]
2019-Dec-06 01:10 UT
(server date/time)
Site Manager:
Ryan S. Park
Webmaster
:
Alan B. Chamberlin